Weather History for KMSP - October, 2011

Change the Weather History Date:

Monday, October 31, 2011

  Actual Average Record
Temperature  
Mean Temperature 42 °F 42 °F  
Max Temperature 50 °F 51 °F 83 °F (1950)
Min Temperature 33 °F 34 °F 15 °F (1878)
Degree Days  
Heating Degree Days 23 23  
Month to date heating degree days 345 506  
Since 1 July heating degree days 495 680  
Cooling Degree Days 0 0  
Month to date cooling degree days 54 6  
Year to date cooling degree days 1061 753  
Moisture  
Dew Point 33 °F    
Average Humidity 75    
Maximum Humidity 100    
Minimum Humidity 49    
Precipitation  
Precipitation 0.00 in 0.06 in 0.85 in (1991)
Month to date precipitation 0.70 2.43  
Year to date precipitation 25.62 27.68  
Snow  
Snow 0.00 in 0.10 in 8.20 in (1991)
Month to date snowfall 0.0 0.6  
Since 1 July snowfall 0.0 0.6  
Since 1 September snowfall 0.0 0.6  
Snow Depth 0.00 in    
Sea Level Pressure  
Sea Level Pressure 30.00 in    
Wind  
Wind Speed 5 mph (SW)    
Max Wind Speed 13 mph    
Max Gust Speed 16 mph    
Visibility 6 miles    
Events Fog    
T = Trace of Precipitation, MM = Missing Value Source: NWS Daily Summary

Daily Weather History Graph

Daily Weather History Graph

Search for Another Location

Airport or City:

Trip Planner

Search our weather history database for the weather conditions in past years. The results will help you decide how hot, cold, wet, or windy it might be!

Date:

Astronomy

Oct. 31, 2011 Rise Set
Actual Time 7:49 AM CDT 6:02 PM CDT
Civil Twilight 7:18 AM CDT 6:33 PM CDT
Nautical Twilight 6:44 AM CDT 7:07 PM CDT
Astronomical Twilight 6:10 AM CDT 7:41 PM CDT
Moon 1:02 PM CDT (10/31) 10:34 PM CDT (10/31)
Length of Visible Light 11h 14m
Length of Day
10h 13m
Waxing Crescent, 30% of the Moon is Illuminated
Oct 31
Waxing Crescent
Nov 2
First Quarter
Nov 10
Full
Nov 18
Last Quarter
Nov 25
New

Hourly Weather History & Observations

Time (CDT) Temp. Windchill Dew Point Humidity Pressure Visibility Wind Dir Wind Speed Gust Speed Precip Events Conditions
12:53 AM 39.0 °F 35.7 °F 35.1 °F 86% 29.98 in 10.0 mi West 4.6 mph - N/A   Mostly Cloudy
1:38 AM 37.4 °F 34.9 °F 33.8 °F 87% 29.97 in 8.0 mi West 3.5 mph - N/A   Mostly Cloudy
1:53 AM 39.9 °F 37.8 °F 36.0 °F 86% 29.99 in 9.0 mi West 3.5 mph - N/A   Mostly Cloudy
2:21 AM 37.4 °F 33.8 °F 33.8 °F 87% 29.97 in 9.0 mi West 4.6 mph - N/A   Scattered Clouds
2:53 AM 37.0 °F 34.5 °F 34.0 °F 89% 30.00 in 8.0 mi WNW 3.5 mph - N/A   Scattered Clouds
3:53 AM 37.9 °F 35.5 °F 34.0 °F 86% 30.00 in 7.0 mi WSW 3.5 mph - N/A   Overcast
4:29 AM 37.4 °F - 33.8 °F 87% 29.98 in 8.0 mi Calm Calm - N/A   Overcast
4:53 AM 36.0 °F 33.3 °F 33.1 °F 89% 30.00 in 7.0 mi WSW 3.5 mph - N/A   Scattered Clouds
5:53 AM 35.6 °F 32.8 °F 33.8 °F 93% 30.00 in 7.0 mi West 3.5 mph - N/A   Partly Cloudy
6:21 AM 35.6 °F 31.7 °F 32.0 °F 87% 30.00 in 7.0 mi West 4.6 mph - N/A   Mostly Cloudy
6:53 AM 34.0 °F - 32.0 °F 92% 30.02 in 6.0 mi Calm Calm - N/A   Scattered Clouds
7:53 AM 34.0 °F - 30.9 °F 89% 30.03 in 5.0 mi Calm Calm - N/A   Clear
8:13 AM 33.8 °F - 30.2 °F 87% 30.01 in 5.0 mi Calm Calm - N/A   Partly Cloudy
8:21 AM 33.8 °F - 32.0 °F 93% 30.01 in 5.0 mi Calm Calm - N/A   Mostly Cloudy
8:29 AM 33.8 °F - 32.0 °F 93% 30.01 in 1.0 mi Calm Calm - N/A   Mostly Cloudy
8:39 AM 33.8 °F 30.8 °F 33.8 °F 100% 30.01 in 0.5 mi WSW 3.5 mph - N/A Fog Fog
8:44 AM 33.8 °F 30.8 °F 33.8 °F 100% 30.02 in 0.2 mi West 3.5 mph - N/A Fog Fog
8:53 AM 34.0 °F 28.8 °F 34.0 °F 100% 30.04 in 0.2 mi West 5.8 mph - N/A Fog Fog
9:21 AM 33.8 °F 30.8 °F 33.8 °F 100% 30.02 in 0.5 mi West 3.5 mph - N/A Fog Fog
9:35 AM 33.8 °F 29.6 °F 33.8 °F 100% 30.02 in 0.2 mi SSW 4.6 mph - N/A Fog Fog
9:42 AM 33.8 °F 30.8 °F 33.8 °F 100% 30.02 in 0.5 mi SSW 3.5 mph - N/A Fog Fog
9:53 AM 35.1 °F 30.1 °F 34.0 °F 96% 30.05 in 0.8 mi SW 5.8 mph - N/A   Overcast
10:27 AM 35.6 °F 31.7 °F 33.8 °F 93% 30.03 in 1.5 mi SW 4.6 mph - N/A   Overcast
10:35 AM 35.6 °F 31.7 °F 33.8 °F 93% 30.03 in 3.0 mi WSW 4.6 mph - N/A   Overcast
10:53 AM 36.0 °F - 35.1 °F 97% 30.05 in 3.0 mi Calm Calm - N/A   Overcast
11:25 AM 37.4 °F 33.8 °F 35.6 °F 93% 30.03 in 4.0 mi South 4.6 mph - N/A   Overcast
11:53 AM 39.9 °F 36.7 °F 36.0 °F 86% 30.04 in 7.0 mi South 4.6 mph - N/A   Mostly Cloudy
12:05 PM 42.8 °F 40.1 °F 35.6 °F 76% 30.02 in 7.0 mi SSW 4.6 mph - N/A   Scattered Clouds
12:53 PM 46.0 °F 43.9 °F 35.1 °F 66% 30.02 in 7.0 mi SW 4.6 mph - N/A   Scattered Clouds
1:53 PM 48.9 °F - 34.0 °F 56% 30.01 in 10.0 mi South 6.9 mph - N/A   Scattered Clouds
2:53 PM 48.9 °F - 33.1 °F 54% 29.99 in 10.0 mi Variable 3.5 mph - N/A   Scattered Clouds
3:53 PM 50.0 °F - 33.1 °F 52% 29.97 in 10.0 mi South 4.6 mph - N/A   Partly Cloudy
4:53 PM 50.0 °F - 33.1 °F 52% 29.97 in 10.0 mi SSE 5.8 mph - N/A   Partly Cloudy
5:53 PM 48.9 °F - 30.9 °F 50% 29.96 in 10.0 mi South 4.6 mph - N/A   Partly Cloudy
6:53 PM 45.0 °F 41.2 °F 32.0 °F 60% 29.97 in 10.0 mi SE 6.9 mph - N/A   Scattered Clouds
7:53 PM 45.0 °F 41.2 °F 30.9 °F 58% 29.97 in 10.0 mi SSE 6.9 mph - N/A   Scattered Clouds
8:53 PM 46.0 °F 41.9 °F 30.9 °F 56% 29.96 in 10.0 mi SSE 8.1 mph - N/A   Scattered Clouds
9:53 PM 46.4 °F 41.5 °F 28.4 °F 50% 29.93 in 10.0 mi SSE 10.4 mph - N/A   Scattered Clouds
10:53 PM 46.0 °F 41.9 °F 28.9 °F 51% 29.95 in 10.0 mi SSE 8.1 mph - N/A   Overcast
11:53 PM 46.0 °F 41.9 °F 28.9 °F 51% 29.94 in 10.0 mi SSE 8.1 mph - N/A   Overcast